Hourly Weather Wien

Today, 13 August, Thursday

Time Temperature Precipitation Wind Pressure Humidity
00:00 +24°C° 0 mm 1 mps 744 mmHg 58%
01:00 +23°C° 0 mm 1 mps 744 mmHg 61%
02:00 +23°C° 0 mm 1 mps 744 mmHg 63%
03:00 +22°C° 0 mm 1 mps 744 mmHg 66%
04:00 +22°C° 0 mm 1 mps 744 mmHg 68%
05:00 +23°C° 0 mm 2 mps 744 mmHg 67%
06:00 +23°C° 0 mm 2 mps 744 mmHg 66%
07:00 +24°C° 0 mm 3 mps 744 mmHg 65%
08:00 +26°C° 0 mm 3 mps 744 mmHg 60%
09:00 +28°C° 0 mm 4 mps 744 mmHg 55%
10:00 +30°C° 0 mm 4 mps 743 mmHg 50%
11:00 +32°C° 0 mm 4 mps 743 mmHg 47%
12:00 +33°C° 0 mm 4 mps 743 mmHg 45%
13:00 +34°C° 0 mm 4 mps 743 mmHg 43%
14:00 +34°C° 0.1 mm 4 mps 742 mmHg 44%
15:00 +33°C° 0.1 mm 4 mps 742 mmHg 45%
16:00 +33°C° 0.1 mm 4 mps 741 mmHg 46%
17:00 +32°C° 0.2 mm 4 mps 742 mmHg 53%
18:00 +29°C° 0.2 mm 4 mps 742 mmHg 59%
19:00 +27°C° 0.2 mm 4 mps 742 mmHg 66%
20:00 +26°C° 1.4 mm 4 mps 742 mmHg 71%
21:00 +25°C° 1.4 mm 4 mps 742 mmHg 76%
22:00 +22°C° 1.4 mm 4 mps 742 mmHg 82%
23:00 +22°C° 0.1 mm 4 mps 742 mmHg 82%

Tomorrow, 14 August, Friday

Time Temperature Precipitation Wind Pressure Humidity
00:00 +22°C° 0.1 mm 3 mps 742 mmHg 82%
01:00 +21°C° 0.1 mm 2 mps 742 mmHg 82%
02:00 +21°C° 0 mm 2 mps 742 mmHg 82%
03:00 +21°C° 0 mm 2 mps 742 mmHg 82%
04:00 +21°C° 0 mm 2 mps 742 mmHg 82%
05:00 +21°C° 0 mm 2 mps 742 mmHg 80%
06:00 +23°C° 0 mm 2 mps 742 mmHg 79%
07:00 +23°C° 0 mm 2 mps 742 mmHg 78%
08:00 +24°C° 0 mm 2 mps 742 mmHg 73%
09:00 +25°C° 0 mm 2 mps 742 mmHg 69%
10:00 +26°C° 0 mm 1 mps 742 mmHg 64%
11:00 +27°C° 0.3 mm 1 mps 742 mmHg 61%
12:00 +28°C° 0.3 mm 1 mps 742 mmHg 59%
13:00 +29°C° 0.3 mm 1 mps 741 mmHg 56%
14:00 +29°C° 0.8 mm 1 mps 741 mmHg 57%
15:00 +28°C° 0.8 mm 2 mps 741 mmHg 58%
16:00 +28°C° 0.8 mm 2 mps 740 mmHg 59%
17:00 +27°C° 0.7 mm 2 mps 740 mmHg 64%
18:00 +26°C° 0.7 mm 2 mps 740 mmHg 68%
19:00 +25°C° 0.7 mm 2 mps 740 mmHg 73%
20:00 +25°C° 0 mm 2 mps 741 mmHg 74%
21:00 +24°C° 0 mm 1 mps 741 mmHg 75%
22:00 +24°C° 0 mm 1 mps 741 mmHg 76%
23:00 +23°C° 0.1 mm 2 mps 741 mmHg 78%

Day after tomorrow, 15 August, Saturday

Time Temperature Precipitation Wind Pressure Humidity
00:00 +23°C° 0.1 mm 2 mps 741 mmHg 79%
01:00 +21°C° 0.1 mm 3 mps 741 mmHg 81%
02:00 +21°C° 0 mm 3 mps 741 mmHg 81%
03:00 +21°C° 0 mm 3 mps 741 mmHg 81%
04:00 +20°C° 0 mm 3 mps 741 mmHg 81%
05:00 +21°C° 0 mm 3 mps 741 mmHg 79%
06:00 +21°C° 0 mm 4 mps 741 mmHg 77%
07:00 +22°C° 0 mm 4 mps 741 mmHg 75%
08:00 +23°C° 0 mm 4 mps 741 mmHg 71%
09:00 +25°C° 0 mm 4 mps 741 mmHg 67%
10:00 +26°C° 0 mm 4 mps 742 mmHg 62%
11:00 +26°C° 0.5 mm 4 mps 741 mmHg 62%
12:00 +27°C° 0.5 mm 4 mps 741 mmHg 62%
13:00 +27°C° 0.5 mm 4 mps 741 mmHg 62%
14:00 +27°C° 0.8 mm 4 mps 741 mmHg 65%
15:00 +27°C° 0.8 mm 4 mps 741 mmHg 67%
16:00 +26°C° 0.8 mm 5 mps 741 mmHg 69%
17:00 +25°C° 0.3 mm 4 mps 741 mmHg 73%
18:00 +23°C° 0.3 mm 4 mps 741 mmHg 78%
19:00 +22°C° 0.3 mm 3 mps 741 mmHg 83%
20:00 +21°C° 0 mm 3 mps 741 mmHg 84%
21:00 +20°C° 0 mm 3 mps 741 mmHg 84%
22:00 +20°C° 0 mm 3 mps 741 mmHg 85%
23:00 +20°C° 0 mm 3 mps 741 mmHg 85%

16 August, Sunday

Time Temperature Precipitation Wind Pressure Humidity
00:00 +19°C° 0 mm 3 mps 741 mmHg 85%
01:00 +19°C° 0 mm 3 mps 741 mmHg 85%
02:00 +19°C° 0 mm 3 mps 741 mmHg 85%
03:00 +19°C° 0 mm 2 mps 741 mmHg 85%
04:00 +19°C° 0 mm 2 mps 741 mmHg 85%
05:00 +19°C° 0 mm 2 mps 741 mmHg 82%
06:00 +20°C° 0 mm 2 mps 741 mmHg 79%
07:00 +21°C° 0 mm 2 mps 741 mmHg 76%
08:00 +23°C° 0 mm 2 mps 741 mmHg 69%
09:00 +25°C° 0 mm 2 mps 742 mmHg 62%
10:00 +27°C° 0 mm 2 mps 742 mmHg 56%
11:00 +28°C° 0 mm 2 mps 742 mmHg 52%
12:00 +29°C° 0 mm 2 mps 741 mmHg 48%
13:00 +30°C° 0 mm 1 mps 741 mmHg 45%
14:00 +30°C° 0 mm 2 mps 741 mmHg 45%
15:00 +30°C° 0 mm 2 mps 741 mmHg 45%
16:00 +30°C° 0 mm 2 mps 740 mmHg 44%
17:00 +28°C° 0 mm 2 mps 740 mmHg 51%
18:00 +27°C° 0 mm 2 mps 740 mmHg 57%
19:00 +25°C° 0 mm 2 mps 740 mmHg 63%
20:00 +25°C° 0 mm 2 mps 741 mmHg 66%
21:00 +24°C° 0 mm 2 mps 741 mmHg 69%
22:00 +23°C° 0 mm 1 mps 741 mmHg 71%
23:00 +23°C° 0 mm 1 mps 741 mmHg 73%

17 August, Monday

Time Temperature Precipitation Wind Pressure Humidity
00:00 +22°C° 0 mm 1 mps 741 mmHg 76%
01:00 +22°C° 0 mm 1 mps 740 mmHg 78%
02:00 +21°C° 0 mm 1 mps 740 mmHg 80%
03:00 +21°C° 0 mm 1 mps 740 mmHg 82%
04:00 +21°C° 0 mm 1 mps 740 mmHg 83%
05:00 +21°C° 0 mm 1 mps 740 mmHg 81%
06:00 +22°C° 0 mm 1 mps 740 mmHg 78%
07:00 +23°C° 0 mm 1 mps 740 mmHg 76%
08:00 +25°C° 0 mm 1 mps 740 mmHg 71%
09:00 +26°C° 0 mm 1 mps 740 mmHg 66%
10:00 +28°C° 0 mm 2 mps 740 mmHg 60%
11:00 +29°C° 0 mm 1 mps 740 mmHg 56%
12:00 +31°C° 0 mm 1 mps 740 mmHg 52%
13:00 +32°C° 0 mm 1 mps 740 mmHg 47%
14:00 +31°C° 0.2 mm 1 mps 739 mmHg 49%
15:00 +31°C° 0.2 mm 1 mps 739 mmHg 50%
16:00 +31°C° 0.2 mm 1 mps 738 mmHg 51%
17:00 +29°C° 0.1 mm 2 mps 738 mmHg 56%
18:00 +28°C° 0.1 mm 2 mps 738 mmHg 60%
19:00 +27°C° 0.1 mm 2 mps 738 mmHg 65%
20:00 +26°C° 0.4 mm 2 mps 738 mmHg 67%
21:00 +25°C° 0.4 mm 1 mps 738 mmHg 70%
22:00 +24°C° 0.4 mm 1 mps 738 mmHg 72%
23:00 +24°C° 0.7 mm 2 mps 738 mmHg 74%

18 August, Tuesday

Time Temperature Precipitation Wind Pressure Humidity
00:00 +22°C° 0.7 mm 3 mps 738 mmHg 77%
01:00 +22°C° 0.7 mm 4 mps 738 mmHg 79%
02:00 +21°C° 0.1 mm 5 mps 738 mmHg 80%
03:00 +20°C° 0.1 mm 6 mps 738 mmHg 82%
04:00 +20°C° 0.1 mm 7 mps 738 mmHg 83%
05:00 +20°C° 0.2 mm 7 mps 738 mmHg 82%
06:00 +20°C° 0.2 mm 7 mps 738 mmHg 81%
07:00 +20°C° 0.2 mm 8 mps 738 mmHg 79%
08:00 +20°C° 0.5 mm 8 mps 739 mmHg 79%
09:00 +20°C° 0.5 mm 8 mps 739 mmHg 78%
10:00 +20°C° 0.5 mm 8 mps 739 mmHg 77%
11:00 +20°C° 0.1 mm 8 mps 739 mmHg 75%
12:00 +20°C° 0.1 mm 8 mps 739 mmHg 72%
13:00 +21°C° 0.1 mm 9 mps 739 mmHg 69%
14:00 +20°C° 0.1 mm 8 mps 739 mmHg 70%
15:00 +20°C° 0.1 mm 8 mps 739 mmHg 72%
16:00 +18°C° 0.1 mm 8 mps 739 mmHg 73%
17:00 +18°C° 0.2 mm 7 mps 739 mmHg 73%
18:00 +18°C° 0.2 mm 7 mps 739 mmHg 73%
19:00 +19°C° 0.2 mm 6 mps 739 mmHg 73%
20:00 +19°C° 0 mm 6 mps 739 mmHg 74%
21:00 +19°C° 0 mm 6 mps 740 mmHg 74%
22:00 +19°C° 0 mm 6 mps 740 mmHg 75%
23:00 +19°C° 0 mm 5 mps 740 mmHg 75%
Show more